{"data":{"norad_id":55987,"intl_designator":"2023-042B","name":"STARLINK-5915","alt_names":[],"object_type":"PAYLOAD","status":"ACTIVE","operator":null,"country":"US","launch_date":"2023-03-24","launch_site_code":"AFETR","launch_vehicle":null,"mission":null,"orbit_class":"UNKNOWN","rcs_meters":null,"size_class":null,"mass_kg":null,"dimensions":null,"purposes":["comms"],"wikipedia_slug":null,"has_3d_model":false,"image_url":null,"decayed_at":null,"tle_current":{"epoch":"2026-05-24T22:56:39.245856Z","epoch_age_seconds":82342,"freshness":"FRESH","line1":"1 55987U 23042B   26144.95600979  .00001594  00000+0  69072-4 0  9993","line2":"2 55987  43.0050 348.8820 0001664 272.5621  87.5040 15.26749747174539","mean_motion":15.26749747,"eccentricity":0.0001664,"inclination_deg":43.005,"raan_deg":348.882,"arg_perigee_deg":272.5621,"mean_anomaly_deg":87.504,"bstar":6.9072e-5,"rev_number":17453,"period_min":94.318011372168,"perigee_km":484.39418351428,"apogee_km":486.67841398811,"semimajor_km":6863.6732987512,"source":"CELESTRAK","updated_at":"2026-05-25T13:38:17.921803Z"}}}